Location: Star Hoppers Observatory
(42.7905°N, 83.6127°W)
Time: 11:26:13
(UTC-04:00)

Amateur Radio Satellites - All Passes

Search period start: 17 April 2014 10:56
Search period end: 18 April 2014 10:56
Location: Star Hoppers Observatory, 42.7905°N, 83.6127°W

Satellite Date Start Highest point End Downlink Frequencies (MHz)
Time Altitude Azimuth
HO-68 17 Apr 11:11:03 11:18:17 87° 288° (WNW) 11:25:28 435.675 MHz FM
KITSAT 1 17 Apr 11:22:36 11:29:11 26° 35° (NE) 11:35:43 435.175 FM
PCSat 17 Apr 11:25:44 11:31:09 72° 243° (WSW) 11:36:32 145.825 MHz
RS-15 17 Apr 11:48:54 11:57:45 26° 341° (NNW) 12:06:32 29.354 - 29.394 USB, Beacon 29.352 USB
FUNcube-1 17 Apr 11:55:45 11:59:53 51° 100° (E) 12:04:04 145.950 - 145.970 MHz USB
Saudisat 1A 17 Apr 12:08:29 12:12:34 36° 116° (ESE) 12:16:40 436.775 MHz
Oscar 11 17 Apr 12:13:16 12:17:11 33° 290° (WNW) 12:21:05 145.825 FM, Beacon 2401.500 USB
Sapphire 17 Apr 12:24:38 12:29:01 26° 252° (WSW) 12:33:22 437.095 MHz 1200 baud AX-25 AFSK
HO-68 17 Apr 13:00:20 13:05:00 19° 307° (NW) 13:09:41 435.675 MHz FM
KITSAT 1 17 Apr 13:17:38 13:25:48 86° 59° (ENE) 13:33:52 435.175 FM
AO-27 17 Apr 13:18:24 13:21:02 14° 58° (ENE) 13:23:40 436.795 MHz FM
ITAMSAT 1 17 Apr 13:28:58 13:32:15 17° 60° (ENE) 13:35:32 435.822 SSB
FUNcube-1 17 Apr 13:33:26 13:35:56 16° 296° (WNW) 13:38:27 145.950 - 145.970 MHz USB
Oscar 19 17 Apr 13:37:26 13:42:03 35° 68° (ENE) 13:46:43 437.125 CW, 437.150 USB
Oscar 16 17 Apr 13:45:01 13:49:52 44° 70° (ENE) 13:54:45 437.025 USB, Beacon 2401.1428
Saudisat 1A 17 Apr 13:48:19 13:52:14 29° 314° (NW) 13:56:09 436.775 MHz
AO-Echo 17 Apr 13:58:26 14:02:36 25° 65° (ENE) 14:06:43 ?
RS-15 17 Apr 14:06:23 14:15:04 26° 17° (NNE) 14:23:46 29.354 - 29.394 USB, Beacon 29.352 USB
Uribyol 2 17 Apr 14:15:59 14:20:53 46° 70° (ENE) 14:25:48 436.500 FM
Gurwin Techsat 1B 17 Apr 14:35:35 14:39:36 22° 63° (ENE) 14:43:36 435.225 FM
JAS-1B 17 Apr 14:44:59 14:49:30 17° 57° (ENE) 14:53:38 435.800 - 435.900 CW/SSB
AO-27 17 Apr 14:54:39 14:59:51 83° 256° (WSW) 15:05:05 436.795 MHz FM
OPAL 17 Apr 14:59:14 15:00:44 11° 90° (E) 15:02:14 ?
ITAMSAT 1 17 Apr 15:06:03 15:11:12 67° 258° (WSW) 15:16:23 435.822 SSB
AO-7 17 Apr 15:08:59 15:14:35 21° 49° (NE) 15:20:12 29.400 - 29.500 MHz
KITSAT 1 17 Apr 15:14:36 15:20:10 21° 258° (WSW) 15:25:43 435.175 FM
Oscar 19 17 Apr 15:16:59 15:21:25 29° 265° (W) 15:25:55 437.125 CW, 437.150 USB
TMSAT-1 17 Apr 15:24:06 15:29:02 42° 69° (ENE) 15:34:00 436.925 FM
Oscar 16 17 Apr 15:25:22 15:29:24 23° 267° (W) 15:33:30 437.025 USB, Beacon 2401.1428
AO-Echo 17 Apr 15:36:05 15:41:07 45° 261° (W) 15:46:04 ?
ISS 17 Apr 15:50:27 15:51:12 11° 129° (SE) 15:51:58 145.800 FM
Uosat F 17 Apr 15:53:14 15:57:33 30° 66° (ENE) 16:01:53 435.120 FM
Uribyol 2 17 Apr 15:56:33 16:00:34 23° 266° (W) 16:04:36 436.500 FM
SO-50 17 Apr 15:58:33 16:01:23 17° 110° (ESE) 16:04:13 436.795 FM
Gurwin Techsat 1B 17 Apr 16:14:02 16:19:12 52° 260° (W) 16:24:23 435.225 FM
RS-15 17 Apr 16:19:35 16:30:23 59° 48° (NE) 16:41:22 29.354 - 29.394 USB, Beacon 29.352 USB
JAS-1B 17 Apr 16:31:04 16:39:24 82° 74° (ENE) 16:46:19 435.800 - 435.900 CW/SSB
OPAL 17 Apr 16:35:02 16:40:17 90° 107° (ESE) 16:45:31 ?
AO-7 17 Apr 16:57:55 17:06:11 82° 70° (ENE) 17:14:30 29.400 - 29.500 MHz
TMSAT-1 17 Apr 17:04:44 17:09:05 26° 266° (W) 17:13:29 436.925 FM
ISS 17 Apr 17:24:05 17:27:26 84° 145° (SE) 17:30:48 145.800 FM
Uosat F 17 Apr 17:31:42 17:36:15 34° 263° (W) 17:40:49 435.120 FM
SO-50 17 Apr 17:37:04 17:41:29 57° 307° (NW) 17:45:57 436.795 FM
OPAL 17 Apr 18:15:52 18:18:26 14° 304° (NW) 18:20:59 ?
JAS-1B 17 Apr 18:24:55 18:30:25 19° 268° (W) 18:35:24 435.800 - 435.900 CW/SSB
Hamsat 17 Apr 18:28:13 18:32:06 37° 71° (ENE) 18:36:01 145.90 MHz
UOSAT-12 17 Apr 18:32:20 18:36:21 32° 115° (ESE) 18:40:28 437.025 FM, 437.400 FM
RS-15 17 Apr 18:32:22 18:42:24 44° 250° (WSW) 18:52:43 29.354 - 29.394 USB, Beacon 29.352 USB
JAS-2 17 Apr 18:47:12 18:51:54 26° 66° (ENE) 18:56:18 435.800 - 435.900 CW/SSB, 435.910 FM
AO-7 17 Apr 18:53:54 18:59:51 22° 269° (W) 19:05:50 29.400 - 29.500 MHz
ISS 17 Apr 19:01:43 19:04:31 24° 344° (NNW) 19:07:20 145.800 FM
STRAND 1 17 Apr 19:10:50 19:14:04 17° 91° (E) 19:17:17 ?
SO-50 17 Apr 19:21:35 19:23:03 11° 328° (NNW) 19:24:33 436.795 FM
SO-67 17 Apr 19:42:14 19:45:33 43° 74° (ENE) 19:48:54 435.3500 MHz FM
HO-68 17 Apr 19:56:19 20:00:26 17° 51° (NE) 20:04:34 435.675 MHz FM
Hamsat 17 Apr 20:05:15 20:08:14 19° 268° (W) 20:11:15 145.90 MHz
UOSAT-12 17 Apr 20:12:18 20:16:28 33° 313° (NW) 20:20:43 437.025 FM, 437.400 FM
JAS-2 17 Apr 20:31:10 20:36:51 44° 261° (W) 20:42:02 435.800 - 435.900 CW/SSB, 435.910 FM
Saudisat 1A 17 Apr 20:34:25 20:38:34 38° 49° (NE) 20:42:40 436.775 MHz
ISS 17 Apr 20:39:41 20:42:06 18° 4° (N) 20:44:32 145.800 FM
STRAND 1 17 Apr 20:48:39 20:53:40 60° 288° (WNW) 20:58:40 ?
SO-67 17 Apr 21:17:54 21:18:57 11° 270° (W) 21:20:01 435.3500 MHz FM
Oscar 11 17 Apr 21:33:49 21:37:02 21° 66° (ENE) 21:40:16 145.825 FM, Beacon 2401.500 USB
HO-68 17 Apr 21:39:54 21:47:00 77° 71° (ENE) 21:54:10 435.675 MHz FM
MaSat-1 17 Apr 22:06:14 22:07:52 14° 110° (ESE) 22:09:25 437.345 MHz
Saudisat 1A 17 Apr 22:14:23 22:18:00 25° 247° (WSW) 22:21:33 436.775 MHz
ISS 17 Apr 22:16:22 22:19:32 37° 24° (NNE) 22:22:42 145.800 FM
FUNcube-1 17 Apr 22:53:18 22:57:20 45° 72° (ENE) 23:01:19 145.950 - 145.970 MHz USB
Oscar 11 17 Apr 23:09:00 23:13:00 37° 262° (W) 23:17:01 145.825 FM, Beacon 2401.500 USB
HO-68 17 Apr 23:30:24 23:35:24 20° 269° (W) 23:40:26 435.675 MHz FM
MaSat-1 17 Apr 23:43:59 23:46:11 20° 302° (WNW) 23:48:14 437.345 MHz
ISS 17 Apr 23:53:11 23:56:17 34° 222° (SW) 23:59:21 145.800 FM
SO-50 18 Apr 00:27:54 00:31:40 24° 43° (NE) 00:35:27 436.795 FM
PCSat 18 Apr 00:28:38 00:30:47 12° 102° (ESE) 00:32:56 145.825 MHz
FUNcube-1 18 Apr 00:31:26 00:34:00 16° 268° (W) 00:36:33 145.950 - 145.970 MHz USB
Sapphire 18 Apr 01:23:31 01:28:26 37° 111° (ESE) 01:33:22 437.095 MHz 1200 baud AX-25 AFSK
Oscar 19 18 Apr 01:50:32 01:52:01 11° 88° (E) 01:53:31 437.125 CW, 437.150 USB
Oscar 16 18 Apr 01:57:20 02:00:09 15° 90° (E) 02:02:58 437.025 USB, Beacon 2401.1428
PCSat 18 Apr 02:07:57 02:13:22 90° 299° (WNW) 02:18:50 145.825 MHz
SO-50 18 Apr 02:08:00 02:12:30 52° 241° (WSW) 02:17:04 436.795 FM
OPAL 18 Apr 02:13:34 02:17:30 24° 61° (ENE) 02:21:30 ?
Uribyol 2 18 Apr 02:29:16 02:32:11 15° 90° (E) 02:35:04 436.500 FM
UOSAT-12 18 Apr 03:00:44 03:05:10 38° 48° (NE) 03:09:32 437.025 FM, 437.400 FM
Sapphire 18 Apr 03:06:54 03:11:51 35° 310° (NW) 03:16:50 437.095 MHz 1200 baud AX-25 AFSK
AO-27 18 Apr 03:07:15 03:11:54 33° 97° (E) 03:16:32 436.795 MHz FM
Oscar 10/S400 18 Apr 03:12:36 03:30:36 28° 131° (SE) 04:22:24 145.825 - 145.975 CW/USB, Beacon 145.810 USB
ITAMSAT 1 18 Apr 03:18:16 03:23:09 41° 98° (E) 03:28:00 435.822 SSB
Oscar 19 18 Apr 03:26:49 03:32:03 88° 285° (WNW) 03:37:15 437.125 CW, 437.150 USB
Oscar 16 18 Apr 03:34:50 03:40:01 71° 287° (WNW) 03:45:11 437.025 USB, Beacon 2401.1428
TMSAT-1 18 Apr 03:40:23 03:43:25 15° 90° (E) 03:46:25 436.925 FM
AO-Echo 18 Apr 03:42:37 03:47:21 55° 100° (E) 03:51:58 ?
KITSAT 1 18 Apr 03:46:20 03:54:09 55° 113° (ESE) 04:02:01 435.175 FM
OPAL 18 Apr 03:51:17 03:56:05 46° 259° (WSW) 04:01:00 ?
PCSat 18 Apr 03:53:57 03:57:34 18° 320° (NW) 04:01:12 145.825 MHz
Uribyol 2 18 Apr 04:07:00 04:12:09 69° 287° (WNW) 04:17:17 436.500 FM
JAS-1B 18 Apr 04:17:06 04:20:26 16° 90° (E) 04:23:48 435.800 - 435.900 CW/SSB
Gurwin Techsat 1B 18 Apr 04:29:16 04:34:32 60° 101° (E) 04:39:46 435.225 FM
UOSAT-12 18 Apr 04:41:08 04:45:12 29° 246° (WSW) 04:49:14 437.025 FM, 437.400 FM
AO-27 18 Apr 04:46:49 04:51:22 32° 294° (WNW) 04:55:54 436.795 MHz FM
ITAMSAT 1 18 Apr 04:58:11 05:02:26 26° 295° (WNW) 05:06:41 435.822 SSB
AO-7 18 Apr 04:59:27 05:06:04 26° 93° (E) 05:12:38 29.400 - 29.500 MHz
Oscar 19 18 Apr 05:08:23 05:10:37 13° 302° (WNW) 05:12:51 437.125 CW, 437.150 USB
Oscar 16 18 Apr 05:18:00 05:18:26 10° 304° (NW) 05:18:51 437.025 USB, Beacon 2401.1428
TMSAT-1 18 Apr 05:18:34 05:23:51 70° 287° (WNW) 05:29:06 436.925 FM
AO-Echo 18 Apr 05:22:33 05:25:41 18° 298° (WNW) 05:28:47 ?
Uosat F 18 Apr 05:37:59 05:42:59 69° 102° (ESE) 05:47:57 435.120 FM
KITSAT 1 18 Apr 05:42:17 05:49:49 41° 315° (NW) 05:57:25 435.175 FM
JAS-1B 18 Apr 06:06:05 06:11:44 66° 288° (WNW) 06:17:29 435.800 - 435.900 CW/SSB
Gurwin Techsat 1B 18 Apr 06:10:19 06:14:02 20° 298° (WNW) 06:17:43 435.225 FM
STRAND 1 18 Apr 06:27:17 06:31:34 28° 65° (ENE) 06:35:51 ?
RS-15 18 Apr 06:45:45 06:55:03 31° 105° (ESE) 07:04:06 29.354 - 29.394 USB, Beacon 29.352 USB
AO-7 18 Apr 06:51:14 06:59:31 73° 292° (WNW) 07:07:47 29.400 - 29.500 MHz
TMSAT-1 18 Apr 07:02:25 07:02:48 10° 305° (NW) 07:03:10 436.925 FM
Uosat F 18 Apr 07:18:15 07:21:13 16° 300° (WNW) 07:24:10 435.120 FM
JAS-2 18 Apr 07:38:58 07:42:49 20° 93° (E) 07:46:53 435.800 - 435.900 CW/SSB, 435.910 FM
KITSAT 1 18 Apr 07:43:16 07:47:52 16° 342° (NNW) 07:52:29 435.175 FM
Hamsat 18 Apr 07:48:43 07:53:04 72° 102° (ESE) 07:57:25 145.90 MHz
MaSat-1 18 Apr 08:05:21 08:08:14 70° 62° (ENE) 08:11:38 437.345 MHz
STRAND 1 18 Apr 08:05:52 08:10:36 38° 262° (W) 08:15:22 ?
SO-67 18 Apr 08:38:58 08:42:23 48° 99° (E) 08:45:46 435.3500 MHz FM
AO-7 18 Apr 08:45:49 08:50:55 18° 313° (NW) 08:56:02 29.400 - 29.500 MHz
RS-15 18 Apr 08:55:05 09:06:24 76° 306° (NW) 09:17:25 29.354 - 29.394 USB, Beacon 29.352 USB
HO-68 18 Apr 09:09:48 09:12:32 12° 87° (E) 09:15:16 435.675 MHz FM
PCSat 18 Apr 09:12:54 09:16:25 17° 39° (NE) 09:19:54 145.825 MHz
JAS-2 18 Apr 09:23:02 09:28:13 56° 288° (WNW) 09:33:52 435.800 - 435.900 CW/SSB, 435.910 FM
Hamsat 18 Apr 09:26:47 09:28:29 12° 298° (WNW) 09:30:11 145.90 MHz
KITSAT 1 18 Apr 09:43:19 09:47:25 14° 13° (NNE) 09:51:31 435.175 FM
Sapphire 18 Apr 10:10:21 10:15:23 37° 51° (NE) 10:20:22 437.095 MHz 1200 baud AX-25 AFSK
SO-67 18 Apr 10:14:04 10:15:06 11° 296° (WNW) 10:16:08 435.3500 MHz FM
